MDT,Max TemperatureF,Mean TemperatureF,Min TemperatureF,Max Dew PointF,MeanDew PointF,Min DewpointF,Max Humidity, Mean Humidity, Min Humidity, Max Sea Level PressureIn, Mean Sea Level PressureIn, Min Sea Level PressureIn, Max VisibilityMiles, Mean VisibilityMiles, Min VisibilityMiles, Max Wind SpeedMPH, Mean Wind SpeedMPH, Max Gust SpeedMPH,PrecipitationIn, CloudCover, Events, WindDirDegrees
2013-9-1,82,67,51,55,50,40,96,60,23,30.35,30.04,29.94,10,10,10,20,7,29,0.02,2,Rain-Thunderstorm,98
2013-9-2,83,68,52,53,49,42,93,62,30,30.29,30.07,29.96,10,10,10,22,5,25,0.00,1,Thunderstorm,271
2013-9-3,85,67,48,50,47,43,93,59,24,30.15,30.08,29.99,10,10,10,20,4,24,0.00,1,,111
2013-9-4,87,72,57,47,42,33,86,51,16,30.47,30.25,30.06,10,10,2,9,4,32,0.00,1,,130
2013-9-5,85,67,48,46,40,36,71,45,19,30.45,30.17,30.04,10,10,10,16,5,22,0.00,1,,147
2013-9-6,85,65,45,45,38,35,70,44,17,30.27,30.08,29.98,10,10,10,23,6,31,0.00,1,,107
2013-9-7,84,64,44,50,42,37,76,48,20,30.28,30.06,29.94,10,10,5,29,6,37,0.02,3,Rain-Thunderstorm,157
2013-9-8,83,67,50,46,43,34,74,46,17,30.07,29.93,29.81,10,10,10,17,8,23,0.00,1,,177
2013-9-9,81,66,51,48,43,38,77,49,21,29.94,29.84,29.72,10,10,10,18,9,23,0.00,2,,198
2013-9-10,72,61,49,54,49,41,93,65,37,30.33,30.04,29.85,10,9,6,24,9,31,0.21,6,Rain,144
2013-9-11,72,61,50,54,52,47,100,76,52,30.33,30.11,29.99,10,10,6,14,3,17,0.10,6,Rain-Thunderstorm,43
2013-9-12,69,59,48,55,52,47,100,78,55,30.35,30.12,30.04,10,9,2,16,4,21,0.23,6,Rain,161
2013-9-13,61,55,49,55,52,47,100,86,72,30.28,30.08,29.94,10,9,3,17,9,22,0.48,6,Rain,149
2013-9-14,67,56,45,52,48,45,100,74,48,30.20,30.03,29.88,10,9,1,26,5,31,0.68,5,Rain-Thunderstorm,155
2013-9-15,69,54,39,50,46,39,100,71,42,30.34,30.14,30.01,10,8,0,15,5,20,0.04,4,Fog-Rain-Thunderstorm,166
2013-9-16,70,58,45,52,48,45,100,70,40,30.40,30.21,30.02,10,7,0,7,3,8,0.00,5,Fog,73
2013-9-17,72,59,45,50,48,43,100,69,37,30.12,30.00,29.89,10,10,7,14,5,17,0.00,3,,167
2013-9-18,71,60,49,54,49,44,89,65,40,30.20,29.95,29.82,10,10,5,21,10,29,0.13,5,Rain-Thunderstorm,201
2013-9-19,72,58,43,52,46,38,100,65,29,30.24,30.04,29.88,10,9,0,14,5,20,0.01,4,Fog-Rain-Thunderstorm,151
2013-9-20,72,56,39,46,41,36,100,64,27,30.30,30.09,29.96,10,8,0,14,4,18,0.00,1,Fog,137
2013-9-21,75,56,37,50,41,32,100,61,21,30.26,30.03,29.85,10,8,0,18,6,24,0.00,0,Fog,167
2013-9-22,73,56,39,52,45,38,92,62,31,30.01,29.79,29.55,10,8,1,32,11,40,1.06,6,Rain-Thunderstorm,206
2013-9-23,62,50,37,38,34,28,92,61,29,30.13,29.88,29.61,10,10,10,23,8,28,0.00,2,,321
2013-9-24,69,50,30,38,33,29,100,62,24,30.26,30.12,29.98,10,10,10,15,4,20,0.00,0,,188
2013-9-25,72,53,34,39,34,29,89,56,23,30.05,29.81,29.61,10,10,7,29,10,38,0.00,0,,184
2013-9-26,70,57,44,33,26,19,49,32,15,29.92,29.71,29.61,10,10,10,29,16,36,0.00,0,,189
2013-9-27,62,46,29,40,30,19,75,55,34,30.04,29.79,29.65,10,10,5,31,14,39,T,4,,220
2013-9-28,60,41,21,28,21,13,85,52,18,30.31,30.22,30.09,10,10,10,8,3,9,0.00,0,,165
2013-9-29,68,46,24,33,26,18,88,52,16,30.29,30.14,29.96,10,10,10,14,4,17,0.00,0,,187
2013-9-30,73,52,30,34,27,20,76,46,15,30.11,29.98,29.85,10,10,1,12,4,14,0.00,0,,99